     2.10           OBSERVATION DATA    G (GPS)             RINEX VERSION / TYPE
teqc 2002Mar14 Lou Estey 20020315 16:14:09UTC               PGM / RUN BY / DATE
Solaris 2.7|Ultra 2|cc SC5.0|=+-|*Sparc                     COMMENT
Project= ari Mission= ARI95 CDU Serial No.= 097839          COMMENT
ANT LE1                                                     COMMENT
Firmware: -----: 3.4 CR344: 2.32                            COMMENT
BIT 2 OF LLI FLAGS DATA COLLECTED UNDER A/S CONDITION       COMMENT
dwb2                                                        MARKER NAME
dwb2                                                        MARKER NUMBER
-Unknown- -Unknown-                                         OBSERVER / AGENCY
000337 LEICA 3.4                                            REC # / TYPE / VERS
-Unknown- -Unknown-                                         ANT # / TYPE
 -1283338.6862 -4712983.4085  4090245.8300                  APPROX POSITION XYZ
        1.5290        0.0000        0.0000                  ANTENNA: DELTA H/E/N
     1     1                                                WAVELENGTH FACT L1/2
     4    C1    L1    P2    L2                              # / TYPES OF OBSERV
SNR is mapped to RINEX snr flag value [0-9]                 COMMENT
L1 & L2: (SN - 14)/4, min = 0, max = 9                      COMMENT
  1995     9    14    23    15   38.0000000     GPS         TIME OF FIRST OBS
                                                            END OF HEADER
 95  9 14 23 15 38.0000000  0  9G 1G21G25G15G23G31G 5G20G 9
                  -4281167.4314                  -22497686.69758
                  -4028733.8494                  -21171138.27159
                  -2031976.4104                  -10678107.10758
                  -1981849.1014                  -10414687.31958
                  -1459897.5444                   -7671813.37257
                    -82111.1244                    -431494.86956
                    348849.1984                    1833214.90755
                    233496.5494                    1227035.64556
                    431813.0094                    2269195.67956
 95  9 14 23 15 39.0000000  0  9G 1G21G25G15G23G31G 5G20G 9
                  -4281013.2824                  -22496876.63648
                  -4028544.3074                  -21170142.21849
                  -2032575.0514                  -10681252.98748
                  -1982367.6314                  -10417411.21248
                  -1459422.9854                   -7669319.54747
                    -81647.8754                    -429060.48147
                    348640.4604                    1832117.98345
                    233028.2514                    1224574.72446
                    432446.7644                    2272525.08446
 95  9 14 23 15 40.0000000  0  9G 1G21G25G15G23G31G 5G20G 9
                  -4280858.7914                  -22496064.78348
                  -4028354.4134                  -21169144.32149
                  -2033173.3674                  -10684397.15748
                  -1982885.6134                  -10420133.22748
                  -1458948.1124                   -7666824.07847
                    -81184.4984                    -426624.41547
                    348432.0724                    1831022.89745
                    232560.2624                    1222115.42346
                    433080.6434                    2275856.13946
 95  9 14 23 15 41.0000000  0  9G 1G21G25G15G23G31G 5G20G 9
                  -4280704.0084                  -22495251.39348
                  -4028164.2144                  -21168144.81949
                  -2033771.4014                  -10687539.84548
                  -1983403.2854                  -10422853.60948
                  -1458472.9674                   -7664327.17147
                    -80720.6584                    -424186.91946
                    348224.1824                    1829929.42545
                    232092.5334                    1219657.49346
                    433714.6064                    2279188.63646
 95  9 14 23 15 42.0000000  0  9G 1G21G25G15G23G31G 5G20G 9
                  -4280548.9874                  -22494436.75248
                  -4027973.7664                  -21167144.00649
                  -2034369.2114                  -10690681.36148
                  -1983920.7014                  -10425572.64848
                  -1457997.6094                   -7661829.14847
                    -80256.6024                    -421748.29246
                    348016.3534                    1828837.27745
                    231625.0044                    1217200.61446
                    434348.9744                    2282522.26546
 95  9 14 23 15 43.0000000  0  9G 1G21G25G15G23G31G 5G20G 9
                  -4280393.7584                  -22493621.01848
                  -4027783.2844                  -21166142.01949
                  -2034966.8224                  -10693821.82548
                  -1984437.8904                  -10428290.49648
                  -1457522.0654                   -7659330.14847
                    -79792.3594                    -419308.67547
                    347808.7484                    1827746.30945
                    231157.6514                    1214744.65346
                    434983.5284                    2285856.87046
 95  9 14 23 15 44.0000000  0  9G 1G21G25G15G23G31G 5G20G 9
                  -4280238.3634                  -22492804.41048
                  -4027592.4314                  -21165139.08049
                  -2035564.2784                  -10696961.47948
                  -1984954.8954                  -10431007.37948
                  -1457046.3784                   -7656830.39647
                    -79327.9714                    -416868.30347
                    347601.3214                    1826656.27145
                    230690.4294                    1212289.38846
                    435618.2284                    2289192.24146
 95  9 14 23 15 45.0000000  0  9G 1G21G25G15G23G31G 5G20G 9
                  -4280082.6324                  -22491987.04048
                  -4027401.4214                  -21164135.31449
                  -2036161.6004                  -10700100.42648
                  -1985471.7374                  -10433723.40148
                  -1456570.7614                   -7654330.01347
                    -78863.6524                    -414427.28847
                    347394.0574                    1825567.09245
                    230223.3214                    1209834.71646
                    436253.0514                    2292528.25746
 95  9 14 23 15 46.0000000  0  9G 1G21G25G15G23G31G 5G20G 9
                  -4279926.9814                  -22491169.08848
                  -4027210.2854                  -21163130.88549
                  -2036758.8204                  -10703238.83948
                  -1985988.4494                  -10436438.74148
                  -1456094.8674                   -7651829.17047
                    -78399.0524                    -411985.79747
                    347186.9214                    1824478.58445
                    229756.4794                    1207380.44846
                    436888.1544                    2295864.74346
 95  9 14 23 15 47.0000000  0  9G 1G21G25G15G23G31G 5G20G 9
                  -4279771.2394                  -22490350.65848
                  -4027019.0434                  -21162125.90249
                  -2037355.9634                  -10706376.84648
                  -1986504.8654                  -10439153.52248
                  -1455618.9054                   -7649327.97447
                    -77934.3834                    -409543.94947
                    346979.8914                    1823390.63545
                    229289.5044                    1204926.47546
                    437523.1374                    2299201.60346
 95  9 14 23 15 48.0000000  0  9G 1G21G25G15G23G31G 5G20G 9
                  -4279615.4164                  -22489531.80548
                  -4026827.7084                  -21161120.43049
                  -2037953.0384                  -10709514.49948
                  -1987021.5614                  -10441867.77848
                  -1455142.8904                   -7646826.50047
                    -77469.6604                    -407101.81147
                    346772.9574                    1822303.19145
                    228822.5774                    1202472.75946
                    438158.1774                    2302538.76146
 95  9 14 23 15 49.0000000  0  9G 1G21G25G15G23G31G 5G20G 9
                  -4279459.7384                  -22488712.71148
                  -4026636.3134                  -21160114.64549
                  -2038550.0814                  -10712651.98148
                  -1987538.0044                  -10444581.70648
                  -1454666.8544                   -7644324.91447
                    -77004.9164                    -404659.56347
                    346566.0854                    1821216.07045
                    228355.6664                    1200019.12446
                    438793.2374                    2305876.02546
 95  9 14 23 15 50.0000000  0  9G 1G21G25G15G23G31G 5G20G 9
                  -4279303.8414                  -22487893.46848
                  -4026444.8764                  -21159108.63549
                  -2039147.1074                  -10715789.37148
                  -1988054.4014                  -10447295.39148
                  -1454190.8144                   -7641823.30747
                    -76540.1644                    -402217.27647
                    346359.2614                    1820129.20345
                    227888.7484                    1197565.45246
                    439428.4964                    2309213.33346
 95  9 14 23 15 51.0000000  0  9G 1G21G25G15G23G31G 5G20G 9
                  -4279147.9214                  -22487074.09848
                  -4026253.4014                  -21158102.43049
                  -2039744.1194                  -10718926.69348
                  -1988570.7564                  -10450008.85248
                  -1453714.7744                   -7639321.70147
                    -76075.4104                    -399774.97547
                    346152.4794                    1819042.55645
                    227421.8234                    1195111.74846
                    440063.5644                    2312550.63646
 95  9 14 23 15 52.0000000  0  9G 1G21G25G15G23G31G 5G20G 9
                  -4278991.9924                  -22486254.68648
                  -4026061.9054                  -21157096.11149
                  -2040341.1344                  -10722064.02648
                  -1989087.0834                  -10452722.17048
                  -1453238.5594                   -7636820.17247
                    -75610.6704                    -397332.75247
                    345945.7264                    1817956.06045
                    226954.8774                    1192657.92846
                    440698.6204                    2315887.87746
